User: anonymous   Login
Location: Erlenbrunn
(49.1717°N, 7.6142°E)
Time: 07:30:38
(UTC+00:00)
Language:

CZ-4B R/B - Orbit

View from above orbital plane
View from above orbital plane
View from above satellite
View from above satellite

Ground track
Ground track

The orbit data is extracted from the following two-line orbital elements,

1 27432U 02024C   21058.78804655 -.00000024  00000-0  11650-4 0  9999
2 27432  99.0904  71.3331 0050540 175.0595 358.0591 14.14104686969735
Epoch (UTC): 27 February 2021 18:54:47
Eccentricity: 0.0050540
inclination: 99.0904°
perigee height: 809 km
apogee height: 882 km
right ascension of ascending node: 71.3331°
argument of perigee: 175.0595°
revolutions per day: 14.14104686
mean anomaly at epoch: 358.0591°
orbit number at epoch: 96973

The dashed part of the orbit path shows where the satellite is in the earth's shadow,  

DLR